Fort Leonard Wood, MO

6:01 PM CST on February 19, 2017 (GMT -0600)
Waynesville Regional At Forney Field

Weather History for KTBN - February, 2012

Change the Weather History Date:

Sunday, February 5, 2012

  Actual Average Record
Temperature  
Mean Temperature 37 °F -  
Max Temperature 43 °F 43 °F 65 °F (2008)
Min Temperature 28 °F 28 °F 6 °F (2015)
Degree Days  
Heating Degree Days 28    
Moisture  
Dew Point 36 °F    
Average Humidity 97    
Maximum Humidity 100    
Minimum Humidity 70    
Precipitation  
Precipitation 0.00 in - - ()
Sea Level Pressure  
Sea Level Pressure 30.26 in    
Wind  
Wind Speed 7 mph (NW)    
Max Wind Speed 12 mph    
Max Gust Speed -    
Visibility 7 miles    
Events      
Averages and records for this station are not official NWS values.
T = Trace of Precipitation, MM = Missing Value Source: NWS Daily Summary

Daily Weather History Graph

Daily Weather History Graph

Search for Another Location

Airport or City:

Trip Planner

Search our weather history database for the weather conditions in past years. The results will help you decide how hot, cold, wet, or windy it might be!

Date:

Astronomy

Feb. 05, 2012 Rise Set
Actual Time 7:09 AM CST 5:36 PM CST
Civil Twilight 6:41 AM CST 6:03 PM CST
Nautical Twilight 6:10 AM CST 6:34 PM CST
Astronomical Twilight 5:40 AM CST 7:05 PM CST
Moon 3:36 PM CST (2/5) 5:18 AM CST (2/5)
Length of Visible Light 11h 21m
Length of Day
10h 26m
Waxing Gibbous, 95% of the Moon is Illuminated
Feb 5
Waxing Gibbous
Feb 7
Full
Feb 14
Last Quarter
Feb 21
New
Feb 29
First Quarter

Hourly Weather History & Observations

Time (CST) Temp. Windchill Dew Point Humidity Pressure Visibility Wind Dir Wind Speed Gust Speed Precip Events Conditions
12:55 AM 38.7 °F 33.6 °F 38.7 °F 100% 30.16 in 10.0 mi Variable 6.9 mph - N/A   Overcast
1:37 AM 39.2 °F 35.0 °F 39.2 °F 100% 30.17 in 8.0 mi West 5.8 mph - N/A   Overcast
1:55 AM 38.5 °F 32.7 °F 38.5 °F 100% 30.18 in 7.0 mi West 8.1 mph - N/A   Overcast
2:15 AM 39.2 °F 34.2 °F 39.2 °F 100% 30.18 in 6.0 mi WNW 6.9 mph - N/A   Overcast
2:28 AM 39.2 °F 35.0 °F 39.2 °F 100% 30.19 in 9.0 mi WNW 5.8 mph - N/A   Overcast
2:42 AM 39.2 °F 35.0 °F 39.2 °F 100% 30.19 in 8.0 mi West 5.8 mph - N/A   Overcast
2:55 AM 38.1 °F 32.9 °F 38.1 °F 100% 30.19 in 8.0 mi West 6.9 mph - N/A   Overcast
3:55 AM 37.6 °F 31.6 °F 37.6 °F 100% 30.19 in 5.0 mi West 8.1 mph - N/A   Overcast
4:55 AM 37.2 °F 31.9 °F 37.2 °F 100% 30.21 in 6.0 mi Variable 6.9 mph - N/A   Overcast
4:56 AM 37.4 °F 32.1 °F 37.4 °F 100% 30.21 in 5.0 mi WNW 6.9 mph - N/A   Overcast
5:12 AM 37.4 °F 32.1 °F 37.4 °F 100% 30.21 in 6.0 mi WNW 6.9 mph - N/A   Overcast
5:15 AM 37.4 °F 32.1 °F 37.4 °F 100% 30.21 in 6.0 mi WNW 6.9 mph - N/A   Overcast
5:21 AM 37.4 °F 32.1 °F 37.4 °F 100% 30.21 in 7.0 mi WNW 6.9 mph - N/A   Overcast
5:22 AM 37.4 °F 32.8 °F 37.4 °F 100% 30.21 in 6.0 mi WNW 5.8 mph - N/A   Overcast
5:33 AM 37.4 °F 32.1 °F 37.4 °F 100% 30.22 in 8.0 mi WNW 6.9 mph - N/A   Overcast
5:35 AM 37.4 °F 32.8 °F 37.4 °F 100% 30.22 in 9.0 mi WNW 5.8 mph - N/A   Overcast
5:55 AM 36.9 °F 31.4 °F 36.9 °F 100% 30.22 in 7.0 mi WNW 6.9 mph - 0.00 in   Overcast
5:56 AM 37.4 °F 32.8 °F 37.4 °F 100% 30.22 in 7.0 mi WNW 5.8 mph - N/A   Overcast
6:08 AM 37.4 °F 32.8 °F 37.4 °F 100% 30.22 in 6.0 mi NW 5.8 mph - N/A   Overcast
6:10 AM 37.4 °F 32.8 °F 37.4 °F 100% 30.22 in 6.0 mi WNW 5.8 mph - N/A   Overcast
6:14 AM 37.4 °F 30.8 °F 37.4 °F 100% 30.22 in 5.0 mi NW 9.2 mph - N/A   Overcast
6:19 AM 37.4 °F 30.8 °F 37.4 °F 100% 30.23 in 5.0 mi NW 9.2 mph - N/A   Light Drizzle
6:23 AM 37.4 °F 30.8 °F 37.4 °F 100% 30.23 in 4.0 mi NW 9.2 mph - N/A   Light Drizzle
6:26 AM 37.4 °F 32.1 °F 37.4 °F 100% 30.23 in 4.0 mi NW 6.9 mph - N/A   Overcast
6:55 AM 36.7 °F 31.2 °F 36.7 °F 100% 30.25 in 3.0 mi NW 6.9 mph - 0.00 in   Overcast
6:57 AM 37.4 °F 30.8 °F 37.4 °F 100% 30.25 in 2.5 mi NW 9.2 mph - N/A   Overcast
7:02 AM 37.4 °F 29.8 °F 37.4 °F 100% 30.25 in 1.8 mi NNW 11.5 mph - N/A   Overcast
7:05 AM 35.6 °F 28.0 °F 35.6 °F 100% 30.25 in 1.5 mi NW 10.4 mph - N/A   Overcast
7:13 AM 35.6 °F 29.9 °F 35.6 °F 100% 30.25 in 1.2 mi NW 6.9 mph - N/A   Overcast
7:14 AM 35.6 °F 30.7 °F 35.6 °F 100% 30.25 in 1.2 mi NW 5.8 mph - N/A   Overcast
7:18 AM 35.6 °F 29.2 °F 35.6 °F 100% 30.25 in 1.0 mi WNW 8.1 mph - N/A   Mist
7:19 AM 35.6 °F 29.9 °F 35.6 °F 100% 30.25 in 1.0 mi NW 6.9 mph - N/A   Mist
7:20 AM 35.6 °F 30.7 °F 35.6 °F 100% 30.25 in 1.0 mi WNW 5.8 mph - N/A   Light Drizzle
7:21 AM 35.6 °F 29.9 °F 35.6 °F 100% 30.25 in 1.0 mi WNW 6.9 mph - N/A   Light Drizzle
7:28 AM 35.6 °F 29.2 °F 35.6 °F 100% 30.25 in 1.2 mi NW 8.1 mph - N/A   Light Drizzle
7:34 AM 35.6 °F 29.9 °F 35.6 °F 100% 30.26 in 1.5 mi NW 6.9 mph - N/A   Light Drizzle
7:37 AM 35.6 °F 28.6 °F 35.6 °F 100% 30.26 in 1.8 mi NW 9.2 mph - N/A   Light Drizzle
7:41 AM 35.6 °F 29.9 °F 35.6 °F 100% 30.26 in 2.0 mi NW 6.9 mph - N/A   Light Drizzle
7:45 AM 35.6 °F 29.2 °F 35.6 °F 100% 30.26 in 2.0 mi NNW 8.1 mph - N/A   Overcast
7:55 AM 36.1 °F 29.9 °F 36.1 °F 100% 30.26 in 2.5 mi NNW 8.1 mph - 0.00 in   Overcast
7:56 AM 35.6 °F 29.2 °F 35.6 °F 100% 30.27 in 2.5 mi NNW 8.1 mph - N/A   Overcast
7:58 AM 35.6 °F 28.0 °F 35.6 °F 100% 30.27 in 3.0 mi NW 10.4 mph - N/A   Overcast
8:24 AM 35.6 °F 28.6 °F 35.6 °F 100% 30.28 in 10.0 mi NW 9.2 mph - N/A   Overcast
8:55 AM 36.1 °F 30.6 °F 36.1 °F 100% 30.29 in 10.0 mi NW 6.9 mph - N/A   Overcast
9:08 AM 35.6 °F 29.9 °F 35.6 °F 100% 30.29 in 10.0 mi NW 6.9 mph - N/A   Overcast
9:25 AM 37.4 °F 32.1 °F 37.4 °F 100% 30.29 in 10.0 mi NNW 6.9 mph - N/A   Overcast
9:55 AM 36.9 °F 33.1 °F 36.9 °F 100% 30.30 in 10.0 mi NNW 4.6 mph - N/A   Overcast
10:17 AM 37.4 °F 31.4 °F 37.4 °F 100% 30.31 in 10.0 mi NNW 8.1 mph - N/A   Overcast
10:23 AM 37.4 °F 32.1 °F 37.4 °F 100% 30.31 in 10.0 mi NNW 6.9 mph - N/A   Overcast
10:33 AM 37.4 °F 30.8 °F 37.4 °F 100% 30.31 in 10.0 mi NNW 9.2 mph - N/A   Overcast
10:55 AM 37.0 °F 31.6 °F 36.9 °F 99% 30.32 in 10.0 mi Variable 6.9 mph - N/A   Overcast
11:08 AM 37.4 °F 32.1 °F 37.4 °F 100% 30.31 in 10.0 mi NNW 6.9 mph - N/A   Overcast
11:27 AM 37.4 °F 32.1 °F 37.4 °F 100% 30.31 in 10.0 mi NNW 6.9 mph - N/A   Overcast
11:55 AM 37.8 °F 32.5 °F 37.4 °F 99% 30.32 in 10.0 mi NW 6.9 mph - N/A   Overcast
11:56 AM 37.4 °F 32.8 °F 37.4 °F 100% 30.32 in 10.0 mi NNW 5.8 mph - N/A   Overcast
12:35 PM 39.2 °F 35.9 °F 37.4 °F 93% 30.31 in 10.0 mi North 4.6 mph - N/A   Overcast
12:55 PM 38.5 °F 35.0 °F 37.6 °F 97% 30.31 in 10.0 mi Variable 4.6 mph - N/A   Overcast
1:55 PM 38.5 °F 33.4 °F 37.9 °F 98% 30.31 in 10.0 mi NNW 6.9 mph - N/A   Overcast
1:57 PM 39.2 °F 33.6 °F 37.4 °F 93% 30.31 in 10.0 mi NNW 8.1 mph - N/A   Overcast
2:28 PM 39.2 °F 34.2 °F 37.4 °F 93% 30.30 in 10.0 mi NNW 6.9 mph - N/A   Overcast
2:38 PM 39.2 °F 35.9 °F 37.4 °F 93% 30.30 in 10.0 mi NNW 4.6 mph - N/A   Light Drizzle
2:39 PM 39.2 °F 35.9 °F 37.4 °F 93% 30.30 in 10.0 mi NNW 4.6 mph - N/A   Light Drizzle
2:40 PM 39.2 °F 35.0 °F 37.4 °F 93% 30.30 in 10.0 mi NNW 5.8 mph - N/A   Light Drizzle
2:42 PM 39.2 °F 35.9 °F 37.4 °F 93% 30.30 in 10.0 mi Variable 4.6 mph - N/A   Light Drizzle
2:48 PM 39.2 °F 37.0 °F 37.4 °F 93% 30.30 in 10.0 mi NNW 3.5 mph - N/A   Overcast
2:55 PM 39.7 °F 35.6 °F 37.9 °F 93% 30.31 in 10.0 mi North 5.8 mph - 0.00 in   Overcast
2:58 PM 39.2 °F 35.9 °F 37.4 °F 93% 30.30 in 10.0 mi NNW 4.6 mph - N/A   Overcast
3:20 PM 41.0 °F 37.1 °F 37.4 °F 87% 30.30 in 10.0 mi Variable 5.8 mph - N/A   Mostly Cloudy
3:40 PM 42.8 °F 39.3 °F 37.4 °F 81% 30.30 in 10.0 mi North 5.8 mph - N/A   Mostly Cloudy
3:55 PM 43.0 °F 38.2 °F 35.4 °F 75% 30.30 in 10.0 mi North 8.1 mph - N/A   Mostly Cloudy
4:06 PM 42.8 °F 38.0 °F 33.8 °F 70% 30.30 in 10.0 mi NNW 8.1 mph - N/A   Scattered Clouds
4:55 PM 42.4 °F 37.0 °F 33.6 °F 71% 30.30 in 10.0 mi NNW 9.2 mph - N/A   Clear
5:55 PM 40.8 °F 38.8 °F 32.7 °F 73% 30.30 in 10.0 mi North 3.5 mph - N/A   Clear
6:55 PM 39.7 °F 37.6 °F 31.5 °F 72% 30.30 in 10.0 mi North 3.5 mph - N/A   Clear
7:55 PM 34.9 °F - 31.6 °F 88% 30.31 in 10.0 mi Calm Calm - N/A   Clear
8:55 PM 32.0 °F - 31.1 °F 96% 30.32 in 10.0 mi Calm Calm - N/A   Clear
9:55 PM 31.6 °F - 31.3 °F 99% 30.33 in 10.0 mi Calm Calm - N/A   Clear
10:55 PM 31.1 °F - 30.9 °F 99% 30.32 in 10.0 mi Calm Calm - N/A   Clear
11:55 PM 28.9 °F - 28.8 °F 99% 30.32 in 10.0 mi Calm Calm - N/A   Clear